Flag for United Kingdom Weather past 2 weeks in Slough, England, United Kingdom

Now
50 °F

Cool.


Feels Like: 47 °F
Forecast: 40 / 53 °F
Wind: 7 mph from South

Location: London City Airport


UV Index: 3 (Moderate)

Visibility: N/A


Pressure: 30.21 "Hg

Humidity: 58%

Dew point: 36 °F

Location of SloughLocation

Historic Weather in Slough

°F

Slough temperature yesterday

Maximum temperature yesterday: 61 °F (at 2:50 PM)
Minimum temperature yesterday: 41 °F (at 4:20 AM)
Average temperature yesterday: 52 °F

Past Weeks' High & Low Weather Summary

 TemperatureHumidityPressure
High64 °F (Apr 2, 1:50 PM)94% (Apr 2, 1:20 AM)30.45 "Hg (Apr 2, 1:20 AM)
Low41 °F (Apr 15, 6:20 AM)27% (Apr 16, 4:20 PM)29.50 "Hg (Apr 3, 5:20 AM)
Average54 °F69%30.03 "Hg
* Reported Apr 2 1:20 AM — Apr 17 1:20 AM, Slough, Weather by CustomWeather, © 2014

Note: Actual official high and low records may vary slightly from our data, if they occured in-between our weather recording intervals... More about our weather records

Advertising

Historic Weather Conditions — Data for Previous 24 hours

 ConditionsComfort  
Time TempWeatherWind HumidityBarometerVisibility
1:20 AM
Apr 17
50 °FCool.3 mph62%30.24 "HgN/A
12:50 AM48 °FCool.5 mph66%30.24 "HgN/A
12:20 AM48 °FCool.3 mph62%30.24 "HgN/A
11:50 PM
Apr 16
48 °FCool.6 mph62%30.24 "HgN/A
11:20 PM50 °FCool.3 mph58%30.24 "HgN/A
10:50 PM50 °FCool.5 mph58%30.27 "HgN/A
10:20 PM52 °FCool.3 mph50%30.27 "HgN/A
9:50 PM52 °FCool.5 mph50%30.27 "HgN/A
9:20 PM54 °FCool.5 mph44%30.27 "HgN/A
8:50 PM55 °FSunny.6 mph41%30.27 "Hg10 mi
8:20 PM55 °FPassing clouds.9 mph38%30.27 "HgN/A
7:50 PM57 °FSunny.9 mph33%30.27 "Hg10 mi
7:20 PM59 °FSunny.9 mph29%30.27 "Hg10 mi
6:50 PM59 °FSunny.10 mph27%30.27 "Hg10 mi
6:20 PM61 °FSunny.10 mph29%30.27 "Hg10 mi
5:50 PM61 °FSunny.9 mph31%30.27 "Hg10 mi
5:20 PM61 °FPassing clouds.8 mph31%30.27 "HgN/A
4:50 PM61 °FPassing clouds.8 mph31%30.27 "HgN/A
4:20 PM61 °FPassing clouds.9 mph27%30.30 "HgN/A
3:50 PM61 °FSunny.9 mph29%30.30 "Hg10 mi
3:20 PM61 °FPassing clouds.7 mph36%30.30 "HgN/A
2:50 PM61 °FPassing clouds.10 mph34%30.33 "HgN/A
2:20 PM59 °FPassing clouds.10 mph42%30.33 "HgN/A
1:50 PM59 °FPassing clouds.9 mph45%30.33 "HgN/A
1:20 PM59 °FPassing clouds.9 mph45%30.33 "HgN/A
12:50 PM57 °FPassing clouds.7 mph48%30.36 "HgN/A
12:20 PM57 °FSunny.9 mph48%30.36 "Hg10 mi
11:50 AM54 °FSunny.9 mph54%30.39 "Hg10 mi
11:20 AM54 °FPassing clouds.7 mph54%30.39 "HgN/A
10:50 AM54 °FSunny.9 mph54%30.39 "Hg10 mi
10:20 AM52 °FPassing clouds.9 mph58%30.39 "HgN/A
9:50 AM50 °FPassing clouds.9 mph62%30.39 "HgN/A
9:20 AM50 °FSunny.10 mph62%30.39 "Hg10 mi
8:50 AM48 °FSunny.12 mph66%30.42 "Hg10 mi
8:20 AM46 °FSunny.9 mph76%30.42 "Hg10 mi
7:50 AM46 °FPassing clouds.5 mph71%30.42 "HgN/A
7:20 AM43 °FSunny.3 mph81%30.42 "Hg10 mi
6:50 AM41 °FClear.3 mph87%30.42 "Hg10 mi
6:20 AM41 °FClear.3 mph87%30.39 "Hg10 mi
5:50 AM41 °FQuite cool.5 mph81%30.39 "HgN/A
5:20 AM41 °FQuite cool.2 mph87%30.39 "HgN/A
4:50 AM41 °FQuite cool.5 mph87%30.39 "HgN/A
4:20 AM41 °FQuite cool.3 mph87%30.39 "HgN/A
3:50 AM43 °FQuite cool.3 mph81%30.39 "HgN/A
3:20 AM43 °FQuite cool.3 mph81%30.39 "HgN/A
2:50 AM43 °FQuite cool.3 mph81%30.39 "HgN/A
2:20 AM43 °FQuite cool.2 mph81%30.42 "HgN/A
Weather by CustomWeather, © 2014

See weather overview